[[{"header":{"parameterUnit":"m.s-1","parameterCategory":1,"la1":30.2991,"la2":30.254,"lo1":-89.0895,"lo2":-89.0444,"dy":0.0017,"dx":0.0017,"nx":28,"ny":28,"refTime":"2024-05-07T21:00:00:Z","depth":0,"parameterNumber":2,"parameterNumberName":"U-component_of_WINDS"},"data":[0,0,0,0,0,0,0,0,0,0,0,0,0,0,0,0,0,0,0,0,0,0,0,0,0,0,0,0,0,0,0,0,0,0,0,0,0,0,0,0,0,0,0,0,0,0,0,0,0,0,0,0,0,0,0,0,0,0,-0.0332,-0.0332,0,-0.0336,-0.0336,-0.0336,-0.034,-0.034,-0.034,-0.034,-0.0344,-0.0344,-0.0344,0,0,0,0,0,0,0,0,0,0,0,0,0,-0.0329,-0.0329,-0.0332,-0.0332,-0.0333,-0.0336,-0.0336,-0.0336,-0.034,-0.034,-0.034,-0.034,-0.0344,-0.0344,-0.0344,0,0,0,0,0,0,0,0,0,0,0,0,0,-0.0332,-0.0329,-0.0332,-0.0335,-0.0335,-0.0336,-0.0336,-0.0336,-0.034,-0.034,-0.034,-0.034,-0.0344,-0.0344,-0.0344,-0.0344,0,0,-0.0344,-0.0344,0,0,0,0,0,0,0,0,-0.0332,-0.0332,-0.0334,-0.0334,-0.0335,-0.0337,-0.0337,-0.0339,-0.034,-0.0338,-0.034,-0.034,-0.0342,-0.0342,-0.0343,-0.0344,-0.0344,-0.0344,-0.0344,-0.0344,-0.0344,0,0,0,0,0,0,0,-0.0331,-0.0332,-0.0334,-0.0334,-0.0334,-0.0336,-0.0336,-0.0337,-0.0339,-0.0338,-0.0338,-0.0339,-0.0342,-0.0342,-0.0343,-0.0344,-0.0344,-0.0344,-0.0344,-0.0344,-0.0347,-0.0347,0,0,0,0,0,0,-0.0331,-0.0331,-0.0334,-0.0334,-0.0333,-0.0336,-0.0336,-0.0337,-0.0339,-0.034,-0.0338,-0.0339,-0.0342,-0.0343,-0.0343,-0.0344,-0.0344,-0.0345,-0.0345,-0.0347,-0.0347,-0.0347,0,0,0,0,0,0,-0.0331,-0.0331,-0.0334,-0.0333,-0.0333,-0.0336,-0.0336,-0.0337,-0.0337,-0.034,-0.034,-0.0339,-0.0342,-0.0343,-0.0344,-0.0344,-0.0345,-0.0345,-0.0347,-0.0347,-0.0347,-0.0345,0,0,0,0,0,0,-0.0331,-0.0331,-0.033,-0.0333,-0.0333,-0.0334,-0.0336,-0.0337,-0.0337,-0.0338,-0.034,-0.0341,-0.0342,-0.0344,-0.0344,-0.0344,-0.0345,-0.0347,-0.0347,-0.0347,-0.0346,-0.0345,-0.0345,0,0,0,0,0,-0.033,-0.0329,-0.033,-0.033,-0.0333,-0.0334,-0.0335,-0.0337,-0.0337,-0.0337,-0.0339,-0.034,-0.0344,-0.0344,-0.0344,-0.0344,-0.0347,-0.0347,-0.0347,-0.0346,-0.0345,-0.0345,0,0,0,0,0,0,-0.0326,-0.0329,-0.0331,-0.033,-0.0332,-0.0335,-0.0334,-0.0336,-0.0338,-0.0338,-0.034,-0.0341,-0.0342,-0.0343,-0.0343,-0.0345,-0.0346,-0.0346,-0.0344,-0.0344,-0.0344,-0.0344,-0.0345,0,0,0,0,0,-0.0325,-0.0326,-0.0329,-0.0328,-0.0329,-0.0332,-0.0332,-0.0334,-0.0336,-0.0337,-0.0339,-0.0341,-0.0342,-0.0343,-0.0345,-0.0346,-0.0347,-0.0346,-0.0346,-0.0346,-0.0346,-0.0348,-0.0348,-0.0347,-0.0347,-0.0347,0,0,-0.0323,-0.0325,-0.0325,-0.0327,-0.0329,-0.033,-0.0332,-0.0333,-0.0334,-0.0337,-0.0338,-0.034,-0.0343,-0.0344,-0.0345,-0.0345,-0.0347,-0.0346,-0.0346,-0.0346,-0.0348,-0.0348,-0.0349,-0.0348,-0.0348,-0.0347,0,0,-0.032,-0.0321,-0.0322,-0.0324,-0.0326,-0.0328,-0.0328,-0.0331,-0.0333,-0.0334,-0.0337,-0.0338,-0.0341,-0.0343,-0.0345,-0.0345,-0.0346,-0.0345,-0.0344,-0.0346,-0.0347,-0.0347,-0.0348,-0.0348,-0.0345,-0.0345,-0.0345,0,-0.0318,-0.0319,-0.0322,-0.0323,-0.0324,-0.0327,-0.0328,-0.033,-0.0333,-0.0334,-0.0335,-0.0339,-0.0341,-0.0343,-0.0344,-0.0344,-0.0345,-0.0345,-0.0346,-0.0346,-0.0347,-0.0348,-0.0348,-0.0345,-0.0345,-0.0345,-0.0345,0,-0.0316,-0.0318,-0.0318,-0.0321,-0.0323,-0.0324,-0.0327,-0.0328,-0.033,-0.0332,-0.0335,-0.0337,-0.034,-0.0341,-0.0342,-0.0345,-0.0345,-0.0346,-0.0346,-0.0347,-0.0348,-0.0348,-0.0345,-0.0345,-0.0345,-0.0345,0,0,-0.031,-0.0316,-0.0316,-0.0318,-0.0322,-0.0323,-0.0325,-0.0328,-0.033,-0.0332,-0.0335,-0.0338,-0.0339,-0.0341,-0.0343,-0.0344,-0.0346,-0.0345,-0.0345,-0.0346,-0.035,-0.0349,-0.035,-0.0347,-0.0347,-0.0347,-0.035,0,-0.0308,-0.0312,-0.0315,-0.0317,-0.0319,-0.0323,-0.0325,-0.0328,-0.033,-0.0333,-0.0335,-0.0338,-0.0339,-0.034,-0.0342,-0.0345,-0.0347,-0.0345,-0.035,-0.035,-0.0349,-0.035,-0.0349,-0.0352,-0.035,-0.035,-0.035,0,-0.0306,-0.0309,-0.0312,-0.0318,-0.0318,-0.032,-0.0324,-0.0326,-0.033,-0.0332,-0.0335,-0.0337,-0.034,-0.0341,-0.0346,-0.0344,-0.0347,-0.0349,-0.0349,-0.035,-0.035,-0.0351,-0.0352,-0.0353,-0.0351,-0.035,-0.035,0,-0.0303,-0.0308,-0.031,-0.0312,-0.0318,-0.0319,-0.0322,-0.0326,-0.0328,-0.0332,-0.0333,-0.0337,-0.0339,-0.0343,-0.0346,-0.0346,-0.0351,-0.0352,-0.0354,-0.0354,-0.0354,-0.0354,-0.0356,-0.0355,-0.0355,-0.0355,-0.0355,0,-0.0301,-0.0303,-0.0309,-0.0311,-0.0313,-0.0317,-0.032,-0.0323,-0.0327,-0.033,-0.0333,-0.0335,-0.034,-0.0344,-0.0347,-0.0351,-0.0351,-0.0354,-0.0354,-0.0354,-0.0353,-0.0355,-0.0355,-0.0355,-0.0355,-0.0355,-0.0355,0,-0.0297,-0.0301,-0.0305,-0.031,-0.0312,-0.0314,-0.0319,-0.0321,-0.0325,-0.0328,-0.0329,-0.0335,-0.0339,-0.0343,-0.0349,-0.0351,-0.0356,-0.0356,-0.0354,-0.0355,-0.0357,-0.0357,-0.036,-0.0361,-0.0359,-0.0359,-0.0359,0,-0.0296,-0.0298,-0.0304,-0.0306,-0.0309,-0.0312,-0.0315,-0.032,-0.0322,-0.0328,-0.033,-0.0335,-0.0339,-0.0346,-0.0351,-0.0355,-0.0357,-0.0358,-0.0357,-0.0357,-0.0358,-0.0358,-0.0359,-0.0358,-0.0358,-0.0358,-0.0358,0,-0.0294,-0.0296,-0.03,-0.0305,-0.0308,-0.0312,-0.0316,-0.0318,-0.0323,-0.0326,-0.0331,-0.0335,-0.0341,-0.0346,-0.0352,-0.0355,-0.0358,-0.0358,-0.0359,-0.0358,-0.0357,-0.0358,-0.0355,-0.0358,-0.0358,-0.0358,-0.0358,-0.0358,-0.0292,-0.0294,-0.0299,-0.0304,-0.0308,-0.0312,-0.0315,-0.0319,-0.0323,-0.0329,-0.0331,-0.0337,-0.0342,-0.035,-0.0353,-0.0358,-0.0358,-0.0359,-0.036,-0.036,-0.036,-0.0356,-0.0359,-0.0359,-0.0359,-0.0359,-0.0359,0,-0.029,-0.0294,-0.0298,-0.0305,-0.0308,-0.0311,-0.0316,-0.0319,-0.0324,-0.0329,-0.0333,-0.034,-0.0345,-0.035,-0.0356,-0.0359,-0.0361,-0.0361,-0.0361,-0.0362,-0.0359,-0.0358,-0.0359,-0.0359,-0.0359,-0.0359,-0.0359,-0.0359,-0.029,-0.0294,-0.0298,-0.0305,-0.0309,-0.0314,-0.0317,-0.0321,-0.0325,-0.0333,-0.0337,-0.0341,-0.0346,-0.0353,-0.0358,-0.036,-0.0362,-0.0362,-0.0364,-0.0362,-0.0361,-0.0361,-0.0361,-0.0362,-0.0362,-0.0366,-0.0366,-0.0366]},{"header":{"parameterUnit":"m.s-1","parameterCategory":1,"la1":30.2991,"la2":30.254,"lo1":-89.0895,"lo2":-89.0444,"dy":0.0017,"dx":0.0017,"nx":28,"ny":28,"refTime":"2024-05-07T21:00:00:Z","depth":0,"parameterNumber":3,"parameterNumberName":"V-component_of_WINDS"},"data":[0,0,0,0,0,0,0,0,0,0,0,0,0,0,0,0,0,0,0,0,0,0,0,0,0,0,0,0,0,0,0,0,0,0,0,0,0,0,0,0,0,0,0,0,0,0,0,0,0,0,0,0,0,0,0,0,0,0,6.3726,6.3726,0,6.3766,6.3766,6.3766,6.3698,6.3695,6.3693,6.3691,6.3726,6.3729,6.3732,0,0,0,0,0,0,0,0,0,0,0,0,0,6.3585,6.3588,6.3726,6.3726,6.3727,6.3765,6.3766,6.3767,6.3698,6.3695,6.3692,6.369,6.3725,6.3728,6.3732,0,0,0,0,0,0,0,0,0,0,0,0,0,6.3637,6.3589,6.3726,6.3698,6.3695,6.3765,6.3766,6.3767,6.3699,6.3695,6.3692,6.3688,6.3724,6.3728,6.3733,6.383,0,0,6.3747,6.3749,0,0,0,0,0,0,0,0,6.3635,6.3643,6.3701,6.37,6.3697,6.3723,6.3729,6.3788,6.37,6.3697,6.3691,6.3687,6.3727,6.3731,6.3746,6.3832,6.3834,6.3747,6.375,6.3752,6.3753,0,0,0,0,0,0,0,6.3631,6.3641,6.3741,6.3702,6.37,6.3681,6.3685,6.374,6.3731,6.3697,6.3692,6.3698,6.3726,6.3742,6.3747,6.3834,6.3747,6.3751,6.3754,6.3756,6.4001,6.4004,0,0,0,0,0,0,6.3632,6.3638,6.374,6.3743,6.3657,6.3686,6.369,6.3718,6.373,6.3729,6.3701,6.3695,6.3736,6.3741,6.3748,6.3862,6.3752,6.3756,6.3759,6.3997,6.4002,6.4006,0,0,0,0,0,0,6.3629,6.3642,6.3738,6.3689,6.37,6.3692,6.3724,6.3721,6.3737,6.3733,6.3731,6.372,6.3733,6.3741,6.381,6.3862,6.3758,6.3763,6.3993,6.3999,6.4004,6.4092,0,0,0,0,0,0,6.3625,6.3641,6.3679,6.3691,6.3703,6.3803,6.3728,6.3724,6.3746,6.3738,6.375,6.3749,6.3731,6.3804,6.3815,6.3867,6.3766,6.3988,6.3995,6.4002,6.4085,6.41,6.4114,0,0,0,0,0,6.362,6.3702,6.3682,6.3694,6.3751,6.3806,6.3813,6.3792,6.3751,6.3788,6.3786,6.3749,6.3855,6.3812,6.3824,6.3878,6.3985,6.3993,6.4001,6.4078,6.4097,6.4113,0,0,0,0,0,0,6.3694,6.3702,6.368,6.3768,6.3787,6.3794,6.3841,6.3813,6.3843,6.3834,6.3806,6.3809,6.3884,6.3887,6.3839,6.3972,6.3913,6.3924,6.3967,6.3985,6.3999,6.3996,6.377,0,0,0,0,0,6.3721,6.3767,6.3771,6.3848,6.3859,6.3849,6.3871,6.3854,6.3872,6.3879,6.3881,6.3899,6.3936,6.3961,6.3995,6.4085,6.4086,6.4128,6.4143,6.4155,6.4164,6.4211,6.423,6.4033,6.4033,6.4033,0,0,6.3776,6.3787,6.3817,6.3863,6.3876,6.3922,6.3855,6.3907,6.394,6.3886,6.3952,6.3955,6.3972,6.4052,6.4088,6.4058,6.4219,6.4165,6.4175,6.4178,6.4222,6.4241,6.4257,6.4039,6.4038,6.4037,0,0,6.3901,6.3914,6.3979,6.3994,6.4014,6.4007,6.4023,6.4035,6.4035,6.4101,6.4061,6.41,6.4165,6.4178,6.4194,6.4324,6.4291,6.4336,6.4411,6.4457,6.4473,6.4486,6.4532,6.4548,6.4346,6.4346,6.4346,0,6.3966,6.4036,6.4015,6.407,6.4091,6.4046,6.4111,6.4125,6.4156,6.417,6.4137,6.4218,6.4226,6.4308,6.434,6.4355,6.437,6.4334,6.4473,6.4486,6.4498,6.4541,6.4558,6.4351,6.4351,6.435,6.435,0,6.4115,6.4164,6.4214,6.4246,6.4273,6.4332,6.4319,6.4348,6.4329,6.4324,6.4392,6.4401,6.4435,6.4454,6.4435,6.4534,6.4515,6.4478,6.4417,6.4523,6.4562,6.4579,6.4359,6.4357,6.4355,6.4354,0,0,6.4285,6.4307,6.4325,6.4339,6.4359,6.4396,6.4453,6.4489,6.4514,6.4536,6.4582,6.4639,6.4605,6.4622,6.4604,6.4645,6.4747,6.4603,6.4603,6.4628,6.4855,6.4882,6.4902,6.4726,6.4729,6.4731,6.4853,0,6.4408,6.4508,6.4492,6.4588,6.4632,6.4591,6.464,6.4657,6.4655,6.469,6.4687,6.4727,6.468,6.469,6.4729,6.4726,6.4792,6.4717,6.4766,6.4768,6.4762,6.4923,6.4951,6.5067,6.4869,6.4872,6.4873,0,6.4564,6.4595,6.4696,6.471,6.4727,6.4772,6.4804,6.4839,6.4857,6.4852,6.4873,6.4847,6.4902,6.4842,6.4917,6.4866,6.4885,6.4887,6.4891,6.4894,6.4826,6.4929,6.5103,6.512,6.4898,6.4896,6.4894,0,6.4677,6.4743,6.4813,6.4826,6.4843,6.4876,6.4884,6.4899,6.4922,6.4949,6.4963,6.4995,6.5013,6.5038,6.5021,6.4979,6.5098,6.5037,6.5094,6.5095,6.512,6.5119,6.5299,6.5135,6.5135,6.5134,6.5134,0,6.4815,6.4878,6.4864,6.4906,6.4975,6.4955,6.5024,6.5027,6.504,6.5081,6.5047,6.5086,6.5062,6.5099,6.5086,6.5149,6.5157,6.5154,6.5149,6.5156,6.5157,6.5167,6.5158,6.5139,6.5138,6.5137,6.5136,0,6.4952,6.4945,6.5018,6.5029,6.5034,6.5084,6.5093,6.5131,6.5127,6.5179,6.519,6.5183,6.5224,6.5211,6.5254,6.5246,6.5326,6.5311,6.532,6.5316,6.5374,6.5369,6.5567,6.5591,6.5413,6.5414,6.5416,0,6.504,6.5088,6.5106,6.5132,6.5143,6.5186,6.5209,6.5191,6.5216,6.5241,6.5276,6.5315,6.5345,6.5412,6.5409,6.5442,6.5428,6.5495,6.5432,6.5438,6.5428,6.5425,6.5429,6.5507,6.5509,6.5511,6.5512,0,6.5197,6.5191,6.5228,6.5264,6.5293,6.532,6.5343,6.5366,6.5349,6.5379,6.5422,6.5445,6.5491,6.5529,6.5559,6.5565,6.5536,6.5532,6.5547,6.5554,6.5557,6.5555,6.5353,6.5528,6.5526,6.5525,6.5524,6.5523,6.5311,6.5352,6.5371,6.5413,6.5429,6.5451,6.5488,6.549,6.5526,6.5563,6.5549,6.5598,6.5614,6.5652,6.5662,6.5699,6.5673,6.5695,6.57,6.5705,6.5712,6.5553,6.5704,6.5704,6.5704,6.5703,6.5703,0,6.5465,6.5476,6.5514,6.5549,6.5582,6.5554,6.5578,6.5606,6.565,6.5669,6.5699,6.5748,6.5785,6.5786,6.582,6.585,6.5837,6.5859,6.5856,6.5858,6.5734,6.5718,6.5869,6.5869,6.5869,6.5869,6.5869,6.5869,6.5549,6.5616,6.5613,6.5688,6.5697,6.5746,6.5762,6.5783,6.5797,6.5854,6.5885,6.5887,6.5898,6.5932,6.5965,6.5964,6.5977,6.6005,6.5999,6.5883,6.5866,6.5851,6.5835,6.6008,6.6008,6.6119,6.612,6.6121]}]]